Voltar ao catálogo

NOAA 16 DEB

AtivoSSO
NORAD 41202·DEBRIS·🇺🇸 United States

Lançado Sep 21, 2000 de Vandenberg Space Force Base

Loading…

Próximas Passagens (próximas 24 horas)

TLE

EnvelhecendoSource: Space-Track

Época: Sep 9, 2026, 03:49 UTC

1 41202U 00055DF  26252.15939183  .00001547  00000-0  92915-3 0  9991
2 41202  98.8883 232.0271 0072028 187.9097 172.0941 14.07081669548971

Acompanhe NOAA 16 DEB em tempo real com AllMySat

Download on the App Store